GW6600 Weather Reports


time (UTC)temp
C
wind
direction
speed
KPH
gust
KPH
rain 1hr
cm
rain 24hr
cm
rain mn
cm
humidity
%
barometer
mb
20260906101335 22 154 0.0 0.0 0.00 0.00 0.00 96 1014.8
20260906100831 22 154 0.0 1.6 0.00 0.00 0.00 96 1014.8
20260906100330 22 154 0.0 0.0 0.00 0.00 0.00 96 1014.5
20260906095825 22 154 0.0 0.0 0.00 0.00 0.00 96 1014.5
20260906095321 22 154 0.0 0.0 0.00 0.00 0.00 96 1014.5
20260906094820 22 154 0.0 1.6 0.00 0.00 0.00 96 1014.7
20260906094315 22 154 0.0 1.6 0.00 0.00 0.00 96 1014.8
20260906093811 22 154 0.0 1.6 0.00 0.00 0.00 96 1014.5
20260906093307 22 154 0.0 0.0 0.00 0.00 0.00 96 1014.7
20260906092802 22 154 0.0 0.0 0.00 0.00 0.00 96 1014.7
20260906092305 22 154 0.0 0.0 0.00 0.00 0.00 96 1014.8
20260906091758 22 154 0.0 0.0 0.00 0.00 0.00 96 1014.8
20260906091254 22 154 0.0 0.0 0.00 0.00 0.00 96 1014.8
20260906090750 22 154 0.0 0.0 0.00 0.00 0.00 96 1014.7
20260906090249 22 154 0.0 1.6 0.00 0.00 0.00 96 1014.9
20260906085748 22 153 0.0 0.0 0.00 0.00 0.00 96 1014.9
20260906085247 22 153 1.6 1.6 0.00 0.00 0.00 96 1014.5
20260906084743 22 153 0.0 1.6 0.00 0.00 0.00 96 1014.5
20260906084242 22 153 0.0 1.6 0.00 0.00 0.00 96 1014.5
20260906083737 22 153 0.0 0.0 0.00 0.00 0.00 96 1014.3
20260906083232 22 153 0.0 0.0 0.00 0.00 0.00 96 1014.2
20260906082727 22 153 0.0 0.0 0.00 0.00 0.00 96 1014.4
20260906082223 22 153 0.0 0.0 0.00 0.00 0.00 96 1014.5
20260906081719 22 153 0.0 0.0 0.00 0.00 0.00 96 1014.5
20260906081219 22 153 0.0 0.0 0.00 0.00 0.00 96 1014.3
20260906080715 22 153 0.0 0.0 0.00 0.00 0.00 96 1014.4
20260906080211 22 153 0.0 0.0 0.00 0.00 0.00 96 1014.4
20260906075706 22 153 0.0 0.0 0.00 0.00 0.00 96 1014.5
20260906075200 22 153 0.0 1.6 0.00 0.00 0.00 96 1014.5
20260906074655 22 153 0.0 1.6 0.00 0.00 0.00 96 1014.5
20260906074154 22 154 1.6 3.2 0.00 0.00 0.00 96 1014.7
20260906073649 22 156 3.2 4.8 0.00 0.00 0.00 96 1014.4
20260906073145 22 138 1.6 3.2 0.00 0.00 0.00 96 1014.5
20260906072640 22 101 0.0 0.0 0.00 0.00 0.00 96 1014.1
20260906072136 22 101 0.0 0.0 0.00 0.00 0.00 96 1014.2
20260906071632 22 101 0.0 0.0 0.00 0.00 0.00 96 1014.0
20260906071132 22 100 0.0 0.0 0.00 0.00 0.00 96 1013.9
20260906070629 22 100 0.0 0.0 0.00 0.00 0.00 95 1013.9
20260906070124 22 100 0.0 0.0 0.00 0.00 0.00 95 1014.1
20260906065624 23 100 0.0 0.0 0.00 0.00 0.00 95 1014.0
20260906065119 23 100 0.0 0.0 0.00 0.00 0.00 95 1014.1
20260906064615 23 100 0.0 0.0 0.00 0.00 0.00 95 1014.1
20260906064110 23 100 0.0 0.0 0.00 0.00 0.00 95 1014.2
20260906063605 23 100 0.0 0.0 0.00 0.00 0.00 95 1014.2
20260906063101 23 109 0.0 0.0 0.00 0.00 0.00 95 1014.3
20260906062556 23 113 0.0 0.0 0.00 0.00 0.00 95 1014.4
20260906062055 23 113 0.0 0.0 0.00 0.00 0.00 95 1014.7
20260906061552 23 113 0.0 0.0 0.00 0.00 0.00 95 1014.7
20260906061051 23 118 0.0 0.0 0.00 0.00 0.00 95 1014.7
20260906060547 23 130 0.0 0.0 0.00 0.00 0.00 95 1014.5
20260906060044 23 132 0.0 0.0 0.00 0.00 0.00 95 1014.5
20260906055540 23 132 0.0 0.0 0.00 0.00 0.00 94 1014.7
20260906055035 23 132 0.0 0.0 0.00 0.00 0.00 94 1014.5
20260906054535 23 132 0.0 0.0 0.00 0.00 0.00 94 1014.8
20260906054031 23 132 0.0 0.0 0.00 0.00 0.00 94 1014.8
20260906053527 23 111 0.0 0.0 0.00 0.00 0.00 94 1014.9
20260906053022 23 111 0.0 0.0 0.00 0.00 0.00 94 1015.0
20260906052518 23 111 0.0 0.0 0.00 0.00 0.00 94 1015.2
20260906052015 23 111 0.0 0.0 0.00 0.00 0.00 94 1015.0
20260906051510 23 111 0.0 0.0 0.00 0.00 0.00 94 1015.1
20260906051006 23 111 0.0 0.0 0.00 0.00 0.00 94 1014.9
20260906050500 23 111 0.0 0.0 0.00 0.00 0.00 94 1014.9
20260906050000 23 111 0.0 0.0 0.00 0.00 0.00 93 1014.9
20260906045458 23 111 0.0 0.0 0.00 0.00 0.00 93 1015.0
20260906044955 23 111 0.0 0.0 0.00 0.00 0.00 93 1015.0
20260906044449 23 111 0.0 0.0 0.00 0.00 0.00 93 1015.1
20260906043945 23 111 0.0 0.0 0.00 0.00 0.00 93 1015.0
20260906043441 23 110 0.0 0.0 0.00 0.00 0.00 93 1015.1
20260906042936 23 110 0.0 0.0 0.00 0.00 0.00 93 1015.1
20260906042435 23 111 0.0 0.0 0.00 0.00 0.00 92 1015.2
20260906041930 23 111 0.0 0.0 0.00 0.00 0.00 92 1015.3
20260906041427 23 111 0.0 0.0 0.00 0.00 0.00 92 1015.4
20260906040926 23 110 0.0 0.0 0.00 0.00 0.00 92 1015.3
20260906040421 23 110 0.0 0.0 0.00 0.00 0.00 92 1015.2
20260906035917 23 110 0.0 0.0 0.00 0.00 0.00 92 1015.4
20260906035412 24 110 0.0 0.0 0.00 0.00 0.00 91 1015.6
20260906034907 24 110 0.0 0.0 0.00 0.00 0.00 91 1015.2
20260906034401 24 110 0.0 0.0 0.00 0.00 0.00 91 1015.1
20260906033857 24 110 0.0 0.0 0.00 0.00 0.00 91 1015.2
20260906033357 24 110 0.0 0.0 0.00 0.00 0.00 90 1015.1
20260906032853 24 110 0.0 0.0 0.00 0.00 0.00 90 1015.2
20260906032349 24 110 0.0 0.0 0.00 0.00 0.00 90 1015.4
20260906031844 24 102 0.0 0.0 0.00 0.00 0.00 90 1015.2
20260906031339 24 102 0.0 0.0 0.00 0.00 0.00 89 1015.0
20260906030839 25 102 0.0 0.0 0.00 0.00 0.00 89 1015.0
20260906030335 25 102 0.0 0.0 0.00 0.00 0.00 88 1015.2
20260906025835 25 109 0.0 0.0 0.00 0.00 0.00 88 1015.2
20260906025328 25 109 0.0 0.0 0.00 0.00 0.00 87 1015.2
20260906024828 25 109 0.0 0.0 0.00 0.00 0.00 87 1015.3
20260906024327 25 108 0.0 1.6 0.00 0.00 0.00 86 1015.1
20260906023823 25 114 0.0 1.6 0.00 0.00 0.00 85 1015.1
20260906023318 25 130 0.0 1.6 0.00 0.00 0.00 87 1015.0
20260906022814 25 127 0.0 1.6 0.00 0.00 0.00 88 1015.0
20260906022308 25 127 0.0 0.0 0.00 0.00 0.00 87 1014.9
20260906021804 25 127 0.0 0.0 0.00 0.00 0.00 87 1014.9
20260906021304 25 127 0.0 1.6 0.00 0.00 0.00 87 1014.8
20260906020759 25 115 0.0 0.0 0.00 0.00 0.00 87 1014.8
20260906020258 25 115 0.0 0.0 0.00 0.00 0.00 86 1014.9
20260906015758 25 115 0.0 0.0 0.00 0.00 0.00 86 1014.9
20260906015256 25 115 0.0 0.0 0.00 0.00 0.00 85 1014.5
20260906014751 25 116 0.0 0.0 0.00 0.00 0.00 85 1015.0
20260906014247 25 116 0.0 1.6 0.00 0.00 0.00 84 1014.8
20260906013743 26 100 0.0 1.6 0.00 0.00 0.00 83 1014.4
20260906013243 26 100 0.0 0.0 0.00 0.00 0.00 83 1014.5
20260906012738 26 58 3.2 4.8 0.00 0.00 0.00 84 1014.5
20260906012233 26 147 0.0 0.0 0.00 0.00 0.00 83 1014.7
20260906011729 26 147 0.0 0.0 0.00 0.00 0.00 82 1014.5
20260906011228 26 147 0.0 1.6 0.00 0.00 0.00 82 1014.4
20260906010724 26 137 0.0 1.6 0.00 0.00 0.00 81 1014.2
20260906010220 26 116 0.0 0.0 0.00 0.00 0.00 81 1014.3
20260906005715 26 142 0.0 0.0 0.00 0.00 0.00 81 1014.4
20260906005214 26 142 0.0 0.0 0.00 0.00 0.00 80 1014.4
20260906004713 26 152 1.6 1.6 0.00 0.00 0.00 80 1014.2
20260906004208 26 140 0.0 0.0 0.00 0.00 0.00 80 1014.3
20260906003704 27 140 0.0 0.0 0.00 0.00 0.00 80 1014.3
20260906003159 27 139 0.0 0.0 0.00 0.00 0.00 79 1014.3
20260906002659 27 139 0.0 0.0 0.00 0.00 0.00 79 1014.3
20260906002154 27 125 0.0 0.0 0.00 0.00 0.00 79 1014.3
20260906001649 27 151 0.0 1.6 0.00 0.00 0.00 78 1014.0
20260906001149 27 161 1.6 3.2 0.00 0.00 0.00 78 1014.2
20260906000645 27 122 0.0 1.6 0.00 0.00 0.00 79 1014.1
20260906000140 27 146 1.6 1.6 0.00 0.00 0.00 78 1014.1
20260905235639 28 144 0.0 1.6 0.00 0.00 0.00 77 1014.2
20260905235134 28 136 0.0 0.0 0.00 0.00 0.00 76 1014.1
20260905234629 28 141 1.6 3.2 0.00 0.00 0.00 74 1014.1
20260905234126 28 183 1.6 1.6 0.00 0.00 0.00 73 1014.1
20260905233626 29 122 0.0 1.6 0.00 0.00 0.00 74 1014.0
20260905233120 29 59 1.6 3.2 0.00 0.00 0.00 72 1014.1
20260905232615 29 141 0.0 1.6 0.00 0.00 0.00 73 1014.2
20260905232111 30 127 0.0 3.2 0.00 0.00 0.00 72 1014.0
20260905231611 30 137 0.0 1.6 0.00 0.00 0.00 71 1014.2
20260905231108 30 141 0.0 3.2 0.00 0.00 0.00 70 1014.0
20260905230603 30 41 1.6 3.2 0.00 0.00 0.00 71 1013.9
20260905225600 30 171 1.6 3.2 0.00 0.00 0.00 68 1014.0
20260905225055 30 199 3.2 4.8 0.00 0.00 0.00 68 1013.9
20260905224555 31 207 1.6 3.2 0.00 0.00 0.00 67 1013.9
20260905224055 31 145 0.0 1.6 0.00 0.00 0.00 68 1013.9
20260905223552 31 102 3.2 3.2 0.00 0.00 0.00 67 1013.8
20260905223048 31 222 1.6 3.2 0.00 0.00 0.00 66 1013.8
20260905222548 31 114 1.6 1.6 0.00 0.00 0.00 66 1013.7
20260905222044 31 205 6.4 11.3 0.00 0.00 0.00 63 1013.8
20260905221540 32 191 3.2 9.7 0.00 0.00 0.00 60 1013.7
20260905221036 31 150 1.6 4.8 0.00 0.00 0.00 62 1013.5
20260905220531 32 142 1.6 9.7 0.00 0.00 0.00 58 1013.7
20260905220027 32 194 4.8 9.7 0.00 0.00 0.00 60 1013.7
20260905215526 32 270 3.2 4.8 0.00 0.00 0.00 61 1014.0
20260905215023 33 204 8.0 11.3 0.00 0.00 0.00 59 1014.2
20260905214518 33 207 4.8 9.7 0.00 0.00 0.00 60 1014.1
20260905214013 33 163 0.0 1.6 0.00 0.00 0.00 60 1014.0
20260905213509 33 140 0.0 3.2 0.00 0.00 0.00 60 1014.2
20260905213004 33 227 3.2 11.3 0.00 0.00 0.00 59 1014.3
20260905212459 32 230 3.2 4.8 0.00 0.00 0.00 61 1014.2
20260905211958 33 243 3.2 6.4 0.00 0.00 0.00 61 1014.1
20260905211454 33 71 3.2 6.4 0.00 0.00 0.00 60 1014.0
20260905210949 32 142 0.0 4.8 0.00 0.00 0.00 62 1014.0
20260905210444 33 257 3.2 6.4 0.00 0.00 0.00 62 1014.2
20260905205944 33 358 3.2 3.2 0.00 0.00 0.00 63 1014.3
20260905205439 32 131 0.0 4.8 0.00 0.00 0.00 64 1014.3
20260905204937 33 146 1.6 6.4 0.00 0.00 0.00 62 1014.2
20260905204433 33 117 0.0 9.7 0.00 0.00 0.00 60 1014.4
20260905203932 33 156 1.6 11.3 0.00 0.00 0.00 60 1014.3
20260905203428 33 138 0.0 1.6 0.00 0.00 0.00 62 1014.7
20260905202923 33 99 0.0 1.6 0.00 0.00 0.00 62 1014.2
20260905202419 33 193 4.8 4.8 0.00 0.00 0.00 59 1014.4
20260905201914 33 139 0.0 1.6 0.00 0.00 0.00 57 1014.5
20260905201409 33 137 0.0 1.6 0.00 0.00 0.00 58 1014.5
20260905200909 33 111 0.0 3.2 0.00 0.00 0.00 58 1014.8
20260905200405 33 125 1.6 3.2 0.00 0.00 0.00 57 1014.7
20260905195903 34 130 0.0 1.6 0.00 0.00 0.00 57 1014.7
20260905195358 34 133 0.0 3.2 0.00 0.00 0.00 58 1015.0
20260905194854 33 42 1.6 4.8 0.00 0.00 0.00 58 1015.0
20260905194354 33 108 1.6 3.2 0.00 0.00 0.00 60 1015.0
20260905193853 33 117 1.6 1.6 0.00 0.00 0.00 64 1014.9
20260905193348 32 188 3.2 3.2 0.00 0.00 0.00 65 1015.3
20260905192844 31 149 0.0 3.2 0.00 0.00 0.00 70 1015.1
20260905192339 31 224 3.2 4.8 0.00 0.00 0.00 70 1015.2
20260905191838 31 219 3.2 4.8 0.00 0.00 0.00 70 1015.4
20260905191338 30 134 0.0 3.2 0.00 0.00 0.00 72 1015.6
20260905190837 30 136 1.6 6.4 0.00 0.00 0.00 74 1016.0
20260905190330 31 171 3.2 3.2 0.00 0.00 0.00 70 1015.9
20260905185829 31 210 3.2 4.8 0.00 0.00 0.00 66 1015.9
20260905185325 31 153 1.6 3.2 0.00 0.00 0.00 68 1016.0
20260905184824 31 143 1.6 4.8 0.00 0.00 0.00 69 1015.8
20260905184323 31 146 1.6 4.8 0.00 0.00 0.00 72 1015.8
20260905183822 29 70 3.2 4.8 0.00 0.00 0.00 78 1015.9
20260905183318 29 109 1.6 3.2 0.00 0.00 0.00 78 1015.8
20260905182818 28 126 1.6 3.2 0.00 0.00 0.00 79 1015.6
20260905182317 27 111 1.6 4.8 0.00 0.00 0.00 82 1016.0
20260905181813 27 128 0.0 1.6 0.00 0.00 0.00 83 1016.3
20260905181312 28 194 3.2 3.2 0.00 0.00 0.00 81 1016.3
20260905180811 28 153 0.0 3.2 0.00 0.00 0.00 80 1016.2
20260905180307 28 40 1.6 3.2 0.00 0.00 0.00 80 1016.6
20260905175801 28 129 0.0 1.6 0.00 0.00 0.00 80 1016.5
20260905175256 28 129 0.0 3.2 0.00 0.00 0.00 79 1016.6
20260905174751 28 88 1.6 3.2 0.00 0.00 0.00 78 1016.4
20260905174247 28 122 0.0 0.0 0.00 0.00 0.00 79 1016.3
20260905173743 28 121 1.6 1.6 0.00 0.00 0.00 77 1016.7
20260905173239 29 42 3.2 3.2 0.00 0.00 0.00 74 1016.8
20260905172738 30 65 3.2 9.7 0.00 0.00 0.00 72 1017.1
20260905172232 30 130 3.2 4.8 0.00 0.00 0.00 68 1017.1
20260905171729 31 351 8.0 11.3 0.00 0.00 0.00 63 1016.8
20260905171225 31 104 0.0 3.2 0.00 0.00 0.00 62 1016.6
20260905170721 32 32 3.2 6.4 0.00 0.00 0.00 61 1016.7
20260905170221 32 77 3.2 4.8 0.00 0.00 0.00 63 1016.6
20260905165721 32 95 0.0 3.2 0.00 0.00 0.00 61 1016.7
20260905165216 33 96 0.0 3.2 0.00 0.00 0.00 59 1016.8
20260905164716 33 352 1.6 1.6 0.00 0.00 0.00 56 1016.7
20260905164216 33 112 0.0 4.8 0.00 0.00 0.00 57 1016.9
20260905163712 33 214 3.2 6.4 0.00 0.00 0.00 56 1017.2
20260905163209 33 95 1.6 3.2 0.00 0.00 0.00 56 1016.7
20260905162704 33 120 0.0 3.2 0.00 0.00 0.00 56 1016.6
20260905162204 32 31 3.2 4.8 0.00 0.00 0.00 58 1016.8
20260905161659 32 178 1.6 6.4 0.00 0.00 0.00 60 1016.9
20260905161157 32 208 3.2 4.8 0.00 0.00 0.00 59 1016.7
20260905160656 32 116 0.0 3.2 0.00 0.00 0.00 60 1016.7
20260905160155 32 107 0.0 3.2 0.00 0.00 0.00 63 1016.9
20260905155650 32 124 0.0 3.2 0.00 0.00 0.00 63 1016.8
20260905155149 31 135 0.0 3.2 0.00 0.00 0.00 64 1016.8
20260905154643 31 192 1.6 4.8 0.00 0.00 0.00 64 1016.8
20260905154139 30 119 1.6 3.2 0.00 0.00 0.00 66 1017.1
20260905153635 30 179 3.2 6.4 0.00 0.00 0.00 66 1017.0
20260905153130 30 146 1.6 1.6 0.00 0.00 0.00 70 1017.0
20260905152625 29 115 0.0 1.6 0.00 0.00 0.00 73 1017.1
20260905152119 29 118 0.0 1.6 0.00 0.00 0.00 73 1017.2
20260905151614 29 187 1.6 3.2 0.00 0.00 0.00 72 1017.1
20260905151110 30 182 3.2 4.8 0.00 0.00 0.00 71 1017.1
20260905150605 30 135 0.0 1.6 0.00 0.00 0.00 71 1017.1
20260905150104 29 161 1.6 3.2 0.00 0.00 0.00 71 1017.2
20260905145602 28 137 1.6 3.2 0.00 0.00 0.00 74 1017.2
20260905145101 28 113 0.0 1.6 0.00 0.00 0.00 75 1017.2
20260905144556 28 121 1.6 4.8 0.00 0.00 0.00 76 1017.2
20260905144055 28 153 1.6 3.2 0.00 0.00 0.00 74 1017.1
20260905143555 28 144 0.0 0.0 0.00 0.00 0.00 76 1017.2
20260905143051 28 97 1.6 1.6 0.00 0.00 0.00 76 1017.5
20260905142549 28 127 0.0 1.6 0.00 0.00 0.00 78 1017.4
20260905142049 28 154 1.6 1.6 0.00 0.00 0.00 78 1017.4
20260905141544 28 118 0.0 0.0 0.00 0.00 0.00 79 1017.2
20260905141041 27 149 0.0 3.2 0.00 0.00 0.00 78 1017.4
20260905140542 27 125 0.0 3.2 0.00 0.00 0.00 79 1017.5
20260905140040 27 115 1.6 1.6 0.00 0.00 0.00 81 1017.3
20260905135536 26 121 0.0 1.6 0.00 0.00 0.00 82 1017.6
20260905135036 27 208 1.6 4.8 0.00 0.00 0.00 81 1017.4
20260905134531 27 124 0.0 1.6 0.00 0.00 0.00 81 1017.5
20260905134029 26 135 0.0 1.6 0.00 0.00 0.00 84 1017.4
20260905133525 26 119 0.0 3.2 0.00 0.00 0.00 83 1017.4
20260905133020 26 130 1.6 1.6 0.00 0.00 0.00 82 1017.3
20260905132519 26 111 0.0 3.2 0.00 0.00 0.00 84 1017.7
20260905132014 26 90 1.6 1.6 0.00 0.00 0.00 84 1017.7
20260905131515 25 94 0.0 0.0 0.00 0.00 0.00 85 1017.8
20260905131010 25 93 0.0 0.0 0.00 0.00 0.00 86 1017.8
20260905130509 25 92 0.0 1.6 0.00 0.00 0.00 87 1017.7
20260905130004 25 78 0.0 1.6 0.00 0.00 0.00 87 1017.9
20260905125458 25 120 0.0 0.0 0.00 0.00 0.00 90 1017.9
20260905124954 24 121 0.0 0.0 0.00 0.00 0.00 92 1017.8
20260905124451 24 121 0.0 0.0 0.00 0.00 0.00 93 1017.9
20260905123945 23 121 0.0 0.0 0.00 0.00 0.00 95 1018.0
20260905123442 23 121 0.0 0.0 0.00 0.00 0.00 96 1018.1
20260905122943 23 121 0.0 0.0 0.00 0.00 0.00 96 1017.8
20260905122442 23 121 0.0 0.0 0.00 0.00 0.00 96 1017.8
20260905121938 23 121 0.0 1.6 0.00 0.00 0.00 97 1017.7
20260905121433 23 121 0.0 0.0 0.00 0.00 0.00 97 1017.6
20260905120932 22 121 0.0 0.0 0.00 0.00 0.00 97 1017.6
20260905120427 22 121 0.0 0.0 0.00 0.00 0.00 97 1017.5
20260905115922 22 121 0.0 0.0 0.00 0.00 0.00 97 1017.5
20260905115422 22 120 0.0 1.6 0.00 0.00 0.00 97 1017.2
20260905114917 22 120 0.0 0.0 0.00 0.00 0.00 97 1017.1
20260905114416 22 120 0.0 0.0 0.00 0.00 0.00 97 1017.2
20260905113915 22 120 0.0 0.0 0.00 0.00 0.00 97 1017.0
20260905113411 22 120 0.0 0.0 0.00 0.00 0.00 97 1016.9
20260905112906 22 120 0.0 0.0 0.00 0.00 0.00 97 1017.1
20260905112401 22 120 0.0 0.0 0.00 0.00 0.00 97 1016.8
20260905111857 22 120 0.0 0.0 0.00 0.00 0.00 97 1016.8
20260905111356 22 120 0.0 0.0 0.00 0.00 0.00 97 1016.7
20260905110855 22 120 0.0 0.0 0.00 0.00 0.00 97 1016.7
20260905110349 22 120 0.0 0.0 0.00 0.00 0.00 97 1016.8
20260905105845 22 120 0.0 0.0 0.00 0.00 0.00 96 1016.6
20260905105345 22 120 0.0 0.0 0.00 0.00 0.00 96 1016.7
20260905104844 22 120 0.0 0.0 0.00 0.00 0.00 96 1016.4
20260905104341 22 120 0.0 0.0 0.00 0.00 0.00 96 1016.6
20260905103840 22 120 0.0 0.0 0.00 0.00 0.00 96 1016.8
20260905103336 22 120 0.0 0.0 0.00 0.00 0.00 96 1016.3
20260905102832 22 120 0.0 0.0 0.00 0.00 0.00 96 1016.4
20260905102329 22 120 0.0 0.0 0.00 0.00 0.00 96 1016.3
20260905101828 22 120 0.0 0.0 0.00 0.00 0.00 96 1016.3